sat.trackr.live / text

‹ back to catalog

BRO-13

NORAD 59107 · 2024-043K

PAYLOAD ACTIVE UNKNOWN

§ Identity

Operator
Country
FR
Launch date
2024-03-04
Launch site
AFWTR
Launch vehicle
Mass (kg)
RCS (m²)

External: N2YO · Heavens-Above · Gunter

§ Orbital elements

Epoch: 2026-09-22T21:38:41.650080Z

Period
96.21 min
Inclination
97.8620°
Eccentricity
0.0009518
Mean motion
14.96777128 rev/d
Perigee alt
570.2 km
Apogee alt
583.5 km
Semi-major
6,955.0 km
B*
7.1160e-5
RAAN
37.3135°
Arg perigee
40.1937°
Mean anomaly
319.9987°
Rev number
13,923

§ Raw data

BRO-131 59107U 24043K   26265.90187095  .00000755  00000+0  71160-4 0  99902 59107  97.8620  37.3135 0009518  40.1937 319.9987 14.96777128139231

JSON: /api/v1/satellites/59107 · /tle

For live sub-satellite position, see the globe view (requires WebGL).

§ Visibility from observer

Set your observer location to see the next 7 days of passes ≥ 10°. The values pass through the URL so the page stays shareable.

No JS? Fill the form by hand. The geolocation button needs JavaScript.

§ Radio — SatNOGS DB

ModeDescriptionDownlinkUplink
BPSK Mode S - Transmitter 2.261 GHz
FSK AX.100 Mode 5 Mode U - FSK4k8 - TLM 401.760 MHz
FSK AX.100 Mode 5 Mode U - FSK9k6 - TLM 401.760 MHz
FSK AX.100 Mode 5 Mode U - FSK4k8 - TLM (inactive) 401.735 MHz
FSK AX.100 Mode 5 Mode U - FSK9k6 - TLM (inactive) 401.735 MHz

5 transmitters · refreshed weekly from db.satnogs.org